LOT7LG LUKK-EPWA

Flight info

Callsign LOT7LG
Flight time 1h 27m
Altitude 38000
Route NUNTA DCT BUZZE DCT KARIL DCT KENIN/N0435F340 DCT ORTEB DCT KONZI DCT LOGDA
Aircraft B738/M-SDE2E3FGHIRWXY/LB1

Departure

Time 2026-05-07 17:01
Airport Chişinău International Airport (LUKK)

Arrival

Time 2026-05-07 18:29
Airport Warsaw Chopin Airport (EPWA)
Time Latitude Longitude Altitude Speed Heading
2026-05-07 16:16 46.93361 28.93669 315 ft 0 kts
2026-05-07 16:55 46.93368 28.93670 315 ft 0 kts
2026-05-07 16:55 46.93390 28.93665 315 ft 6 kts 331°
2026-05-07 16:55 46.93412 28.93555 317 ft 10 kts 281°
2026-05-07 16:56 46.93421 28.93474 319 ft 14 kts 278°
2026-05-07 16:56 46.93434 28.93330 322 ft 14 kts 276°
2026-05-07 16:56 46.93474 28.92932 331 ft 23 kts 276°
2026-05-07 16:57 46.93476 28.92785 334 ft 8 kts 234°
2026-05-07 16:57 46.93410 28.92757 335 ft 14 kts 186°
2026-05-07 16:57 46.93328 28.92742 335 ft 0 kts 187°
2026-05-07 16:58 46.93326 28.92742 335 ft 2 kts 187°
2026-05-07 16:58 46.93270 28.92732 335 ft 11 kts 187°
2026-05-07 16:58 46.93217 28.92643 337 ft 14 kts 273°
2026-05-07 16:58 46.93233 28.92487 342 ft 16 kts 278°
2026-05-07 16:59 46.93253 28.92312 347 ft 18 kts 279°
2026-05-07 16:59 46.93271 28.92124 354 ft 16 kts 277°
2026-05-07 16:59 46.93265 28.92070 355 ft 2 kts 173°
2026-05-07 16:59 46.93263 28.92125 354 ft 0 kts 96°
2026-05-07 17:00 46.93262 28.92146 353 ft 12 kts 96°
2026-05-07 17:01 46.93218 28.92651 337 ft 85 kts 95°
2026-05-07 17:01 46.93122 28.93811 312 ft 142 kts 96°
2026-05-07 17:01 46.92989 28.95400 615 ft 161 kts 102°
2026-05-07 17:01 46.92806 28.97528 1463 ft 161 kts 104°
2026-05-07 17:02 46.92707 28.98614 1868 ft 163 kts 105°
2026-05-07 17:02 46.92558 29.00272 2414 ft 171 kts 104°
2026-05-07 17:02 46.92401 29.02081 2845 ft 189 kts 102°
2026-05-07 17:02 46.92230 29.04058 3319 ft 206 kts 101°
2026-05-07 17:03 46.92274 29.06204 3849 ft 227 kts 76°
2026-05-07 17:03 46.93147 29.08216 4390 ft 248 kts 43°
2026-05-07 17:03 46.94703 29.09430 4940 ft 265 kts 15°
2026-05-07 17:03 46.96580 29.09564 5500 ft 278 kts 347°
2026-05-07 17:04 46.98278 29.08301 6217 ft 282 kts 314°
2026-05-07 17:04 46.99371 29.05975 7000 ft 282 kts 293°
2026-05-07 17:04 47.00094 29.03291 7793 ft 284 kts 289°
2026-05-07 17:04 47.00767 29.00579 8579 ft 288 kts 290°
2026-05-07 17:05 47.01501 28.97870 9356 ft 291 kts 292°
2026-05-07 17:05 47.02293 28.95163 10103 ft 294 kts 294°
2026-05-07 17:05 47.03134 28.92394 10775 ft 301 kts 294°
2026-05-07 17:05 47.03989 28.89605 11459 ft 306 kts 294°
2026-05-07 17:06 47.04857 28.86770 12187 ft 311 kts 294°
2026-05-07 17:06 47.05748 28.83853 12929 ft 316 kts 294°
2026-05-07 17:06 47.06645 28.80903 13684 ft 319 kts 294°
2026-05-07 17:06 47.07542 28.77945 14420 ft 324 kts 294°
2026-05-07 17:07 47.08452 28.74942 15174 ft 327 kts 294°
2026-05-07 17:07 47.09380 28.71870 15954 ft 330 kts 294°
2026-05-07 17:07 47.10295 28.68800 16719 ft 333 kts 292°
2026-05-07 17:07 47.11019 28.65601 17406 ft 337 kts 283°
2026-05-07 17:08 47.11379 28.62194 18134 ft 338 kts 274°
2026-05-07 17:08 47.11465 28.58774 18838 ft 341 kts 270°
2026-05-07 17:08 47.11438 28.55310 19556 ft 342 kts 269°
2026-05-07 17:08 47.11378 28.51800 20215 ft 345 kts 269°
2026-05-07 17:09 47.11315 28.48315 20923 ft 346 kts 269°
2026-05-07 17:09 47.11257 28.44776 21552 ft 348 kts 270°
2026-05-07 17:09 47.11204 28.41217 22217 ft 350 kts 270°
2026-05-07 17:09 47.11140 28.36468 23011 ft 353 kts 270°
2026-05-07 17:10 47.11109 28.34097 23405 ft 354 kts 270°
2026-05-07 17:10 47.11063 28.30486 23968 ft 357 kts 270°
2026-05-07 17:10 47.11002 28.25655 24766 ft 358 kts 270°
2026-05-07 17:10 47.10971 28.23214 25111 ft 360 kts 270°
2026-05-07 17:11 47.10922 28.19543 25649 ft 362 kts 270°
2026-05-07 17:11 47.10872 28.15840 26132 ft 365 kts 270°
2026-05-07 17:11 47.10803 28.10915 26798 ft 368 kts 270°
2026-05-07 17:11 47.10767 28.08385 27113 ft 370 kts 270°
2026-05-07 17:12 47.10712 28.04656 27604 ft 371 kts 270°
2026-05-07 17:12 47.10655 28.00860 28113 ft 372 kts 270°
2026-05-07 17:12 47.10597 27.97055 28551 ft 375 kts 270°
2026-05-07 17:12 47.10538 27.93267 29020 ft 376 kts 270°
2026-05-07 17:13 47.10506 27.89458 29464 ft 378 kts 272°
2026-05-07 17:13 47.10629 27.85595 29936 ft 377 kts 277°
2026-05-07 17:13 47.10988 27.81808 30368 ft 378 kts 281°
2026-05-07 17:13 47.11477 27.78029 30738 ft 381 kts 283°
2026-05-07 17:14 47.12050 27.74190 31122 ft 383 kts 284°
2026-05-07 17:14 47.12656 27.70379 31490 ft 386 kts 284°
2026-05-07 17:14 47.13269 27.66549 31862 ft 388 kts 284°
2026-05-07 17:14 47.13885 27.62667 32212 ft 391 kts 284°
2026-05-07 17:15 47.14497 27.58742 32608 ft 392 kts 284°
2026-05-07 17:15 47.15118 27.54702 32936 ft 395 kts 283°
2026-05-07 17:15 47.15727 27.50700 33303 ft 397 kts 283°
2026-05-07 17:15 47.16335 27.46659 33617 ft 400 kts 283°
2026-05-07 17:16 47.16942 27.42607 33979 ft 401 kts 283°
2026-05-07 17:16 47.17551 27.38519 34268 ft 404 kts 283°
2026-05-07 17:16 47.18161 27.34405 34602 ft 406 kts 283°
2026-05-07 17:16 47.18769 27.30289 34854 ft 409 kts 282°
2026-05-07 17:17 47.19364 27.26257 35125 ft 411 kts 282°
2026-05-07 17:17 47.19973 27.22109 35380 ft 413 kts 282°
2026-05-07 17:17 47.20579 27.17976 35618 ft 416 kts 282°
2026-05-07 17:17 47.21195 27.13760 35853 ft 418 kts 282°
2026-05-07 17:18 47.21810 27.09540 36143 ft 419 kts 282°
2026-05-07 17:18 47.22421 27.05333 36441 ft 419 kts 282°
2026-05-07 17:18 47.23027 27.01152 36827 ft 418 kts 282°
2026-05-07 17:18 47.23621 26.97042 37283 ft 416 kts 282°
2026-05-07 17:19 47.24224 26.92854 37606 ft 416 kts 282°
2026-05-07 17:19 47.24830 26.88640 37926 ft 417 kts 282°
2026-05-07 17:19 47.26027 26.80285 37978 ft 421 kts 282°
2026-05-07 17:20 47.27223 26.71881 37974 ft 422 kts 282°
2026-05-07 17:20 47.28419 26.63437 37974 ft 422 kts 281°
2026-05-07 17:21 47.29602 26.55031 37974 ft 422 kts 281°
2026-05-07 17:21 47.30780 26.46620 37975 ft 422 kts 281°
2026-05-07 17:22 47.31961 26.38136 37983 ft 422 kts 281°
2026-05-07 17:22 47.33127 26.29715 37983 ft 421 kts 281°
2026-05-07 17:23 47.34291 26.21261 37984 ft 422 kts 281°
2026-05-07 17:23 47.35445 26.12830 37993 ft 423 kts 280°
2026-05-07 17:24 47.36604 26.04311 37992 ft 423 kts 280°
2026-05-07 17:24 47.37749 25.95844 37996 ft 423 kts 280°
2026-05-07 17:25 47.38884 25.87400 37996 ft 423 kts 280°
2026-05-07 17:25 47.40021 25.78898 38006 ft 423 kts 280°
2026-05-07 17:26 47.41148 25.70420 38011 ft 422 kts 280°
2026-05-07 17:26 47.42265 25.61957 38022 ft 421 kts 280°
2026-05-07 17:27 47.43380 25.53464 38031 ft 422 kts 280°
2026-05-07 17:27 47.44671 25.43564 38036 ft 422 kts 280°
2026-05-07 17:28 47.45578 25.36567 38027 ft 420 kts 279°
2026-05-07 17:28 47.46675 25.28060 38025 ft 422 kts 279°
2026-05-07 17:29 47.47764 25.19565 38026 ft 420 kts 279°
2026-05-07 17:29 47.49015 25.09737 38027 ft 421 kts 278°
2026-05-07 17:30 47.49906 25.02682 38031 ft 422 kts 278°
2026-05-07 17:30 47.50976 24.94180 38031 ft 421 kts 278°
2026-05-07 17:31 47.52034 24.85708 38023 ft 421 kts 278°
2026-05-07 17:31 47.53270 24.75751 38020 ft 420 kts 278°
2026-05-07 17:32 47.54142 24.68681 38022 ft 421 kts 278°
2026-05-07 17:32 47.55186 24.60172 38022 ft 420 kts 278°
2026-05-07 17:33 47.56228 24.51631 38019 ft 421 kts 278°
2026-05-07 17:33 47.57425 24.41737 38022 ft 420 kts 278°
2026-05-07 17:34 47.58277 24.34653 38023 ft 420 kts 277°
2026-05-07 17:34 47.59290 24.26180 38024 ft 420 kts 277°
2026-05-07 17:35 47.60301 24.17651 38023 ft 420 kts 277°
2026-05-07 17:35 47.61470 24.07731 38025 ft 421 kts 277°
2026-05-07 17:36 47.62301 24.00628 38017 ft 421 kts 277°
2026-05-07 17:36 47.63288 23.92134 38015 ft 420 kts 277°
2026-05-07 17:37 47.64274 23.83592 38015 ft 422 kts 277°
2026-05-07 17:37 47.65421 23.73571 38021 ft 422 kts 277°
2026-05-07 17:38 47.66231 23.66437 38017 ft 421 kts 277°
2026-05-07 17:38 47.67193 23.57916 38014 ft 421 kts 277°
2026-05-07 17:39 47.68151 23.49364 38015 ft 422 kts 277°
2026-05-07 17:39 47.69122 23.40643 38013 ft 421 kts 277°
2026-05-07 17:40 47.70076 23.32018 38007 ft 421 kts 276°
2026-05-07 17:40 47.71016 23.23454 38003 ft 421 kts 276°
2026-05-07 17:41 47.71948 23.14902 38002 ft 422 kts 276°
2026-05-07 17:41 47.72884 23.06240 37999 ft 422 kts 276°
2026-05-07 17:42 47.73809 22.97632 37999 ft 422 kts 276°
2026-05-07 17:42 47.74726 22.89029 37997 ft 422 kts 276°
2026-05-07 17:43 47.75633 22.80467 37994 ft 422 kts 276°
2026-05-07 17:43 47.76688 22.70430 37993 ft 420 kts 276°
2026-05-07 17:44 47.77442 22.63187 37993 ft 422 kts 276°
2026-05-07 17:44 47.78460 22.54461 37985 ft 424 kts 281°
2026-05-07 17:45 47.80817 22.46358 37987 ft 434 kts 301°
2026-05-07 17:45 47.85707 22.38573 37975 ft 445 kts 317°
2026-05-07 17:46 47.89947 22.34166 37975 ft 449 kts 323°
2026-05-07 17:46 47.95341 22.29419 37973 ft 451 kts 326°
2026-05-07 17:47 48.00780 22.24736 37968 ft 451 kts 325°
2026-05-07 17:47 48.06193 22.19986 37969 ft 452 kts 324°
2026-05-07 17:48 48.11663 22.15102 37965 ft 451 kts 324°
2026-05-07 17:48 48.17088 22.10198 37966 ft 451 kts 324°
2026-05-07 17:49 48.22449 22.05318 37968 ft 452 kts 324°
2026-05-07 17:49 48.28699 21.99605 37964 ft 451 kts 324°
2026-05-07 17:50 48.33239 21.95442 37964 ft 452 kts 324°
2026-05-07 17:50 48.39631 21.89800 37964 ft 455 kts 328°
2026-05-07 17:51 48.44397 21.86191 37972 ft 456 kts 330°
2026-05-07 17:51 48.51097 21.81311 37967 ft 458 kts 330°
2026-05-07 17:52 48.55940 21.77751 37966 ft 457 kts 329°
2026-05-07 17:52 48.61675 21.73475 37968 ft 458 kts 329°
2026-05-07 17:53 48.67386 21.69168 37963 ft 458 kts 329°
2026-05-07 17:53 48.74070 21.64091 37965 ft 458 kts 329°
2026-05-07 17:54 48.78876 21.60422 37958 ft 458 kts 329°
2026-05-07 17:54 48.85543 21.55320 37967 ft 459 kts 329°
2026-05-07 17:55 48.90368 21.51618 37964 ft 459 kts 329°
2026-05-07 17:55 48.96999 21.46519 37958 ft 460 kts 329°
2026-05-07 17:56 49.01752 21.42853 37972 ft 460 kts 329°
2026-05-07 17:56 49.07449 21.38451 37953 ft 461 kts 329°
2026-05-07 17:57 49.13169 21.34020 37952 ft 461 kts 328°
2026-05-07 17:57 49.19850 21.28827 37949 ft 460 kts 328°
2026-05-07 17:58 49.24636 21.25184 37942 ft 464 kts 332°
2026-05-07 17:58 49.30920 21.22391 37949 ft 472 kts 345°
2026-05-07 17:59 49.37436 21.20812 37949 ft 473 kts 348°
2026-05-07 17:59 49.45089 21.19137 37955 ft 473 kts 348°
2026-05-07 18:00 49.51656 21.17593 37947 ft 472 kts 347°
2026-05-07 18:00 49.58135 21.15972 37951 ft 473 kts 347°
2026-05-07 18:01 49.64616 21.14293 37952 ft 474 kts 346°
2026-05-07 18:01 49.71226 21.12552 37954 ft 475 kts 346°
2026-05-07 18:02 49.79921 21.10238 37948 ft 475 kts 346°
2026-05-07 18:03 49.87495 21.08214 37950 ft 475 kts 346°
2026-05-07 18:03 49.94013 21.06468 37887 ft 476 kts 346°
2026-05-07 18:03 49.97278 21.05592 37627 ft 473 kts 346°
2026-05-07 18:04 49.99414 21.05020 37466 ft 470 kts 346°
2026-05-07 18:04 50.02610 21.04165 37217 ft 467 kts 346°
2026-05-07 18:04 50.05836 21.03299 36970 ft 470 kts 346°
2026-05-07 18:04 50.09072 21.02425 36732 ft 472 kts 346°
2026-05-07 18:05 50.12366 21.01535 36486 ft 472 kts 346°
2026-05-07 18:05 50.15604 21.00661 36291 ft 474 kts 346°
2026-05-07 18:05 50.19886 20.99503 35762 ft 473 kts 346°
2026-05-07 18:05 50.23146 20.98622 35346 ft 469 kts 346°
2026-05-07 18:06 50.25317 20.98034 35068 ft 468 kts 346°
2026-05-07 18:06 50.28479 20.97174 34621 ft 468 kts 346°
2026-05-07 18:06 50.31684 20.96300 34079 ft 470 kts 346°
2026-05-07 18:06 50.35982 20.95127 33354 ft 473 kts 346°
2026-05-07 18:07 50.39237 20.94236 32806 ft 475 kts 346°
2026-05-07 18:07 50.42461 20.93353 32265 ft 474 kts 346°
2026-05-07 18:07 50.45725 20.92459 31719 ft 474 kts 346°
2026-05-07 18:07 50.48983 20.91564 31175 ft 476 kts 346°
2026-05-07 18:08 50.51157 20.90965 30812 ft 476 kts 346°
2026-05-07 18:08 50.55469 20.89777 30095 ft 478 kts 346°
2026-05-07 18:08 50.57683 20.89166 29731 ft 478 kts 346°
2026-05-07 18:08 50.62040 20.87964 29007 ft 481 kts 347°
2026-05-07 18:09 50.64219 20.87361 28644 ft 479 kts 347°
2026-05-07 18:09 50.68552 20.86164 27919 ft 472 kts 347°
2026-05-07 18:09 50.70699 20.85572 27559 ft 469 kts 347°
2026-05-07 18:09 50.74963 20.84392 26853 ft 473 kts 347°
2026-05-07 18:10 50.77120 20.83792 26491 ft 475 kts 347°
2026-05-07 18:10 50.80370 20.82888 25952 ft 475 kts 347°
2026-05-07 18:10 50.83592 20.81993 25502 ft 467 kts 347°
2026-05-07 18:10 50.86771 20.81108 25076 ft 462 kts 348°
2026-05-07 18:11 50.90984 20.79930 24511 ft 464 kts 348°
2026-05-07 18:11 50.93124 20.79331 24222 ft 463 kts 348°
2026-05-07 18:11 50.96272 20.78590 23796 ft 459 kts 352°
2026-05-07 18:11 51.00467 20.78217 23242 ft 449 kts 358°
2026-05-07 18:12 51.03560 20.78223 22830 ft 441 kts 360°
2026-05-07 18:12 51.05587 20.78283 22559 ft 437 kts
2026-05-07 18:12 51.09610 20.78434 22014 ft 428 kts
2026-05-07 18:12 51.11550 20.78499 21743 ft 423 kts
2026-05-07 18:13 51.14473 20.78581 21339 ft 417 kts
2026-05-07 18:13 51.17354 20.78638 20936 ft 414 kts 360°
2026-05-07 18:13 51.20213 20.78674 20498 ft 406 kts 359°
2026-05-07 18:13 51.23882 20.78699 19962 ft 383 kts 359°
2026-05-07 18:14 51.25603 20.78704 19696 ft 374 kts 359°
2026-05-07 18:14 51.28193 20.78703 19342 ft 366 kts 359°
2026-05-07 18:14 51.31553 20.78694 18788 ft 362 kts 359°
2026-05-07 18:14 51.33214 20.78688 18496 ft 359 kts 359°
2026-05-07 18:15 51.35674 20.78679 18133 ft 354 kts 359°
2026-05-07 18:15 51.38121 20.78665 17721 ft 353 kts 358°
2026-05-07 18:15 51.41366 20.78642 17193 ft 349 kts 358°
2026-05-07 18:15 51.43797 20.78627 16761 ft 343 kts 358°
2026-05-07 18:16 51.45377 20.78619 16535 ft 340 kts 358°
2026-05-07 18:16 51.47730 20.78607 16133 ft 340 kts 358°
2026-05-07 18:16 51.50085 20.78746 15743 ft 338 kts
2026-05-07 18:16 51.52365 20.79519 15359 ft 336 kts 14°
2026-05-07 18:17 51.54593 20.80563 14955 ft 334 kts 16°
2026-05-07 18:17 51.56786 20.81668 14551 ft 325 kts 17°
2026-05-07 18:17 51.58916 20.82772 14173 ft 324 kts 17°
2026-05-07 18:17 51.61774 20.84278 13595 ft 324 kts 17°
2026-05-07 18:18 51.63902 20.85414 13107 ft 319 kts 17°
2026-05-07 18:18 51.65266 20.86150 12846 ft 315 kts 17°
2026-05-07 18:18 51.67337 20.87274 12417 ft 315 kts 17°
2026-05-07 18:18 51.69408 20.88405 11935 ft 312 kts 17°
2026-05-07 18:19 51.71431 20.89521 11524 ft 306 kts 17°
2026-05-07 18:19 51.73437 20.90633 11071 ft 306 kts 17°
2026-05-07 18:19 51.75429 20.91746 10703 ft 302 kts 17°
2026-05-07 18:19 51.78037 20.93274 10231 ft 298 kts 24°
2026-05-07 18:20 51.79706 20.95249 9863 ft 299 kts 48°
2026-05-07 18:20 51.80467 20.97102 9614 ft 299 kts 65°
2026-05-07 18:20 51.80994 21.00281 9253 ft 296 kts 82°
2026-05-07 18:20 51.81218 21.04637 8724 ft 289 kts 86°
2026-05-07 18:21 51.81326 21.07835 8350 ft 279 kts 86°
2026-05-07 18:21 51.81402 21.09899 8099 ft 273 kts 82°
2026-05-07 18:21 51.82002 21.12677 7717 ft 261 kts 50°
2026-05-07 18:21 51.83405 21.14380 7347 ft 247 kts 12°
2026-05-07 18:22 51.85522 21.14059 6874 ft 229 kts 331°
2026-05-07 18:22 51.85993 21.13679 6779 ft 227 kts 332°
2026-05-07 18:22 51.88026 21.12735 6271 ft 232 kts 351°
2026-05-07 18:22 51.90167 21.12397 5764 ft 232 kts 353°
2026-05-07 18:23 51.91215 21.12248 5539 ft 229 kts 353°
2026-05-07 18:23 51.92782 21.12024 5207 ft 223 kts 353°
2026-05-07 18:23 51.94315 21.11798 4903 ft 217 kts 353°
2026-05-07 18:23 51.96282 21.11494 4528 ft 211 kts 353°
2026-05-07 18:24 51.97267 21.11335 4324 ft 212 kts 352°
2026-05-07 18:24 51.99215 21.10872 3960 ft 210 kts 349°
2026-05-07 18:24 52.00163 21.10574 3812 ft 208 kts 345°
2026-05-07 18:24 52.01523 21.09783 3517 ft 208 kts 334°
2026-05-07 18:25 52.03195 21.08329 3163 ft 200 kts 331°
2026-05-07 18:25 52.04388 21.07264 2886 ft 196 kts 333°
2026-05-07 18:25 52.05214 21.06561 2674 ft 198 kts 333°
2026-05-07 18:25 52.06809 21.05193 2316 ft 189 kts 333°
2026-05-07 18:26 52.07926 21.04218 2059 ft 175 kts 333°
2026-05-07 18:26 52.08625 21.03612 1894 ft 167 kts 333°
2026-05-07 18:26 52.09911 21.02500 1624 ft 150 kts 333°
2026-05-07 18:26 52.10518 21.01975 1509 ft 143 kts 333°
2026-05-07 18:27 52.11386 21.01225 1306 ft 144 kts 333°
2026-05-07 18:27 52.12263 21.00462 1105 ft 141 kts 332°
2026-05-07 18:27 52.13423 20.99451 850 ft 142 kts 332°
2026-05-07 18:27 52.14005 20.98947 720 ft 142 kts 332°
2026-05-07 18:28 52.14858 20.98207 522 ft 137 kts 332°
2026-05-07 18:28 52.15922 20.97284 353 ft 119 kts 331°
2026-05-07 18:28 52.16635 20.96652 352 ft 99 kts 322°
2026-05-07 18:28 52.16970 20.96359 353 ft 63 kts 328°
2026-05-07 18:29 52.17245 20.96245 354 ft 33 kts
2026-05-07 18:29 52.17369 20.96264 354 ft 10 kts 23°
2026-05-07 18:29 52.17383 20.96278 354 ft 0 kts 36°
2026-05-07 18:29 52.17401 20.96313 354 ft 9 kts 56°
2026-05-07 18:30 52.17431 20.96401 353 ft 16 kts 62°
2026-05-07 18:30 52.17490 20.96555 353 ft 10 kts 47°
2026-05-07 18:30 52.17522 20.96617 353 ft 10 kts 57°
2026-05-07 18:30 52.17532 20.96648 353 ft 4 kts 72°
2026-05-07 18:31 52.17523 20.96703 353 ft 5 kts 128°
2026-05-07 18:31 52.17504 20.96733 353 ft 5 kts 137°
2026-05-07 18:31 52.17484 20.96767 353 ft 1 kts 134°
2026-05-07 18:31 52.17481 20.96771 353 ft 0 kts 134°